Time,TemperatureF,DewpointF,PressureIn,WindDirection,WindDirectionDegrees,WindSpeedMPH,WindSpeedGustMPH,Humidity,HourlyPrecipIn,Conditions,Clouds,dailyrainin,SoftwareType,DateUTC
2013-03-18 00:00:00,47.5,45.6,29.72,ESE,117,2.3,2.3,93,0.00,OVC,FEW,0.00,WeatherDisplay:10.37,2013-03-18 06:00:00,
2013-03-18 00:05:00,47.7,45.8,29.72,SE,140,2.3,2.3,93,0.00,OVC,FEW,0.00,WeatherDisplay:10.37,2013-03-18 06:05:00,
2013-03-18 00:10:00,47.9,46.0,29.72,ESE,106,2.3,2.3,93,0.00,OVC,FEW,0.00,WeatherDisplay:10.37,2013-03-18 06:10:00,
2013-03-18 00:15:00,48.0,46.1,29.72,SE,132,1.1,1.1,93,0.00,OVC,FEW,0.00,WeatherDisplay:10.37,2013-03-18 06:15:00,
2013-03-18 00:20:00,48.1,45.9,29.71,SE,125,2.1,2.1,92,0.00,OVC,FEW,0.00,WeatherDisplay:10.37,2013-03-18 06:20:00,
2013-03-18 00:25:00,48.1,46.2,29.71,ESE,121,1.1,1.1,93,0.00,OVC,FEW,0.00,WeatherDisplay:10.37,2013-03-18 06:25:00,
2013-03-18 00:30:00,48.0,45.8,29.71,ESE,121,2.3,2.3,92,0.00,OVC,FEW,0.00,WeatherDisplay:10.37,2013-03-18 06:30:00,
2013-03-18 00:35:00,47.8,45.9,29.70,ESE,121,1.1,0.0,93,0.00,OVC,FEW,0.00,WeatherDisplay:10.37,2013-03-18 06:35:00,
2013-03-18 00:40:00,47.9,46.3,29.71,ESE,121,1.1,1.1,94,0.00,OVC,FEW,0.00,WeatherDisplay:10.37,2013-03-18 06:40:00,
2013-03-18 00:45:00,48.1,46.2,29.71,ESE,121,0.0,0.0,93,0.00,OVC,FEW,0.00,WeatherDisplay:10.37,2013-03-18 06:45:00,
2013-03-18 00:50:00,48.1,46.5,29.71,ENE,64,3.5,3.5,94,0.00,OVC,FEW,0.00,WeatherDisplay:10.37,2013-03-18 06:50:00,
2013-03-18 00:56:00,48.6,47.0,29.70,ENE,65,2.3,2.3,94,0.00,OVC,FEW,0.00,WeatherDisplay:10.37,2013-03-18 06:56:00,
2013-03-18 01:01:00,48.8,47.2,29.70,ENE,65,1.1,1.1,94,0.00,BKN,FEW,0.00,WeatherDisplay:10.37,2013-03-18 07:01:00,
2013-03-18 01:06:00,48.9,47.2,29.70,ENE,65,1.1,1.1,94,0.00,BKN,FEW,0.00,WeatherDisplay:10.37,2013-03-18 07:06:00,
2013-03-18 01:11:00,49.0,47.1,29.69,ENE,65,1.1,1.1,93,0.00,BKN,FEW,0.00,WeatherDisplay:10.37,2013-03-18 07:11:00,
2013-03-18 01:16:00,49.0,47.1,29.69,ENE,65,0.0,0.0,93,0.00,BKN,FEW,0.00,WeatherDisplay:10.37,2013-03-18 07:16:00,
2013-03-18 01:21:00,49.0,47.3,29.69,ENE,67,1.1,1.1,94,0.00,BKN,FEW,0.00,WeatherDisplay:10.37,2013-03-18 07:21:00,
2013-03-18 01:26:00,49.1,47.4,29.69,East,84,2.3,2.3,94,0.00,BKN,FEW,0.00,WeatherDisplay:10.37,2013-03-18 07:26:00,
2013-03-18 01:31:00,49.1,47.2,29.68,ENE,66,3.5,3.5,93,0.00,BKN,FEW,0.00,WeatherDisplay:10.37,2013-03-18 07:31:00,
2013-03-18 01:36:00,49.0,47.3,29.69,WNW,303,2.3,2.3,94,0.00,BKN,FEW,0.00,WeatherDisplay:10.37,2013-03-18 07:36:00,
2013-03-18 01:41:00,49.0,47.3,29.68,ENE,74,3.5,3.5,94,0.00,BKN,FEW,0.00,WeatherDisplay:10.37,2013-03-18 07:41:00,
2013-03-18 01:46:00,49.2,47.8,29.68,ENE,73,3.5,3.5,95,0.00,BKN,FEW,0.00,WeatherDisplay:10.37,2013-03-18 07:46:00,
2013-03-18 01:51:00,49.4,47.7,29.68,NE,49,3.5,3.5,94,0.00,BKN,FEW,0.00,WeatherDisplay:10.37,2013-03-18 07:51:00,
2013-03-18 01:56:00,49.8,48.4,29.68,ESE,117,3.5,3.5,95,0.00,BKN,FEW,0.00,WeatherDisplay:10.37,2013-03-18 07:56:00,
2013-03-18 02:01:00,51.6,50.8,29.68,SE,141,8.1,8.1,97,0.00,FEW,,0.00,WeatherDisplay:10.37,2013-03-18 08:01:00,
2013-03-18 02:06:00,55.3,54.7,29.68,SSW,192,5.4,5.4,98,0.00,FEW,,0.00,WeatherDisplay:10.37,2013-03-18 08:06:00,
2013-03-18 02:11:00,58.5,57.7,29.67,SSE,148,4.6,4.6,97,0.00,FEW,,0.00,WeatherDisplay:10.37,2013-03-18 08:11:00,
2013-03-18 02:16:00,59.9,56.6,29.67,SW,232,2.1,2.1,89,0.00,FEW,,0.00,WeatherDisplay:10.37,2013-03-18 08:16:00,
2013-03-18 02:21:00,61.2,57.6,29.67,South,178,6.9,6.9,88,0.00,FEW,,0.00,WeatherDisplay:10.37,2013-03-18 08:21:00,
2013-03-18 02:26:00,62.0,58.1,29.67,South,190,5.8,5.8,87,0.00,FEW,,0.00,WeatherDisplay:10.37,2013-03-18 08:26:00,
2013-03-18 02:32:00,62.8,58.2,29.67,SW,225,3.5,3.5,85,0.00,FEW,,0.00,WeatherDisplay:10.37,2013-03-18 08:32:00,
2013-03-18 02:37:00,61.8,55.6,29.69,WNW,298,4.6,4.6,80,0.00,SCT,FEW,0.00,WeatherDisplay:10.37,2013-03-18 08:37:00,
2013-03-18 02:42:00,60.1,54.6,29.68,WNW,299,5.8,5.8,82,0.00,SCT,FEW,0.00,WeatherDisplay:10.37,2013-03-18 08:42:00,
2013-03-18 02:47:00,59.1,54.6,29.68,WNW,300,1.1,0.0,85,0.00,SCT,FEW,0.00,WeatherDisplay:10.37,2013-03-18 08:47:00,
2013-03-18 02:52:00,58.5,54.3,29.68,WNW,294,4.3,4.3,86,0.00,BKN,FEW,0.00,WeatherDisplay:10.37,2013-03-18 08:52:00,
2013-03-18 02:57:00,57.7,54.2,29.68,NW,322,2.3,2.3,88,0.01,RA,FEW,0.01,WeatherDisplay:10.37,2013-03-18 08:57:00,
2013-03-18 03:02:00,57.3,53.8,29.68,North,5,2.1,2.1,88,0.02,RA,FEW,0.02,WeatherDisplay:10.37,2013-03-18 09:02:00,
2013-03-18 03:07:00,56.8,53.9,29.68,North,355,1.1,0.0,90,0.02,RA,FEW,0.02,WeatherDisplay:10.37,2013-03-18 09:07:00,
2013-03-18 03:12:00,56.4,53.8,29.69,North,355,1.1,1.1,91,0.02,SCT,FEW,0.02,WeatherDisplay:10.37,2013-03-18 09:12:00,
2013-03-18 03:17:00,56.0,53.7,29.68,SE,132,1.1,1.1,92,0.02,SCT,FEW,0.02,WeatherDisplay:10.37,2013-03-18 09:17:00,
2013-03-18 03:22:00,55.7,53.7,29.68,SE,126,1.1,1.1,93,0.02,SCT,FEW,0.02,WeatherDisplay:10.37,2013-03-18 09:22:00,
2013-03-18 03:27:00,55.5,53.5,29.68,SSE,160,3.5,3.5,93,0.02,SCT,FEW,0.02,WeatherDisplay:10.37,2013-03-18 09:27:00,
2013-03-18 03:32:00,55.1,53.4,29.70,WNW,289,10.4,10.4,94,0.02,SCT,FEW,0.02,WeatherDisplay:10.37,2013-03-18 09:32:00,
2013-03-18 03:37:00,54.1,52.1,29.71,WNW,290,12.8,12.8,93,0.02,OVC,FEW,0.02,WeatherDisplay:10.37,2013-03-18 09:37:00,
2013-03-18 03:42:00,52.9,50.3,29.71,WNW,296,5.8,5.8,91,0.02,OVC,FEW,0.02,WeatherDisplay:10.37,2013-03-18 09:42:00,
2013-03-18 03:47:00,52.2,50.2,29.72,NNW,347,5.8,5.8,93,0.02,OVC,FEW,0.02,WeatherDisplay:10.37,2013-03-18 09:47:00,
2013-03-18 03:52:00,50.9,48.4,29.72,West,276,8.1,8.1,91,0.02,-RA,FEW,0.02,WeatherDisplay:10.37,2013-03-18 09:52:00,
2013-03-18 03:58:00,49.2,46.4,29.73,WNW,296,10.4,10.4,90,0.01,-RA,FEW,0.02,WeatherDisplay:10.37,2013-03-18 09:58:00,
2013-03-18 04:03:00,47.9,45.4,29.73,East,90,8.1,8.1,91,0.00,-RA,FEW,0.02,WeatherDisplay:10.37,2013-03-18 10:03:00,
2013-03-18 04:08:00,47.2,45.0,29.73,North,10,4.6,4.6,92,0.01,-RA,FEW,0.03,WeatherDisplay:10.37,2013-03-18 10:08:00,
2013-03-18 04:13:00,46.6,44.7,29.72,North,11,8.1,8.1,93,0.04,-RA,FEW,0.06,WeatherDisplay:10.37,2013-03-18 10:13:00,
2013-03-18 04:18:00,46.2,44.6,29.71,WSW,255,3.5,3.5,94,0.06,RA,FEW,0.08,WeatherDisplay:10.37,2013-03-18 10:18:00,
2013-03-18 04:23:00,46.0,44.4,29.71,NE,38,4.6,4.6,94,0.06,RA,FEW,0.08,WeatherDisplay:10.37,2013-03-18 10:23:00,
2013-03-18 04:28:00,45.7,44.1,29.70,East,82,5.8,5.8,94,0.07,RA,FEW,0.09,WeatherDisplay:10.37,2013-03-18 10:28:00,
2013-03-18 04:33:00,45.6,44.3,29.70,NNE,32,3.5,3.5,95,0.08,-DZ,FEW,0.10,WeatherDisplay:10.37,2013-03-18 10:33:00,
2013-03-18 04:38:00,45.5,44.2,29.69,North,360,4.6,4.6,95,0.08,-DZ,FEW,0.10,WeatherDisplay:10.37,2013-03-18 10:38:00,
2013-03-18 04:43:00,45.2,43.9,29.71,NW,323,4.6,4.6,95,0.08,-DZ,FEW,0.10,WeatherDisplay:10.37,2013-03-18 10:43:00,
2013-03-18 04:48:00,45.1,43.8,29.71,NW,312,2.3,2.3,95,0.09,-DZ,FEW,0.11,WeatherDisplay:10.37,2013-03-18 10:48:00,
2013-03-18 04:53:00,44.8,43.5,29.71,ENE,70,5.8,5.8,95,0.11,-DZ,FEW,0.13,WeatherDisplay:10.37,2013-03-18 10:53:00,
2013-03-18 04:58:00,44.7,43.4,29.69,ENE,58,3.2,3.2,95,0.15,-DZ,FEW,0.17,WeatherDisplay:10.37,2013-03-18 10:58:00,
2013-03-18 05:03:00,44.5,43.2,29.70,NW,319,3.2,3.2,95,0.17,-DZ,FEW,0.19,WeatherDisplay:10.37,2013-03-18 11:03:00,
2013-03-18 05:08:00,44.4,43.1,29.72,NNW,336,1.1,1.1,95,0.17,-DZ,FEW,0.20,WeatherDisplay:10.37,2013-03-18 11:08:00,
2013-03-18 05:13:00,44.2,43.1,29.71,NW,314,6.9,6.9,96,0.14,-DZ,FEW,0.20,WeatherDisplay:10.37,2013-03-18 11:13:00,
2013-03-18 05:18:00,44.0,42.7,29.72,NW,318,4.6,4.6,95,0.12,OVC,FEW,0.20,WeatherDisplay:10.37,2013-03-18 11:18:00,
2013-03-18 05:23:00,43.7,42.4,29.75,NNW,329,11.5,11.5,95,0.12,OVC,FEW,0.20,WeatherDisplay:10.37,2013-03-18 11:23:00,
2013-03-18 05:28:00,43.4,42.1,29.75,North,5,9.2,9.2,95,0.20,RA,FEW,0.30,WeatherDisplay:10.37,2013-03-18 11:28:00,
2013-03-18 05:33:00,43.3,42.0,29.72,East,87,8.1,8.1,95,0.29,RA,FEW,0.40,WeatherDisplay:10.37,2013-03-18 11:33:00,
2013-03-18 05:38:00,43.5,42.4,29.71,SSE,150,3.5,3.5,96,0.36,RA,FEW,0.46,WeatherDisplay:10.37,2013-03-18 11:38:00,
2013-03-18 05:43:00,43.7,42.6,29.70,East,88,3.5,3.5,96,0.37,RA,FEW,0.47,WeatherDisplay:10.37,2013-03-18 11:43:00,
2013-03-18 05:48:00,43.9,42.8,29.72,WSW,245,4.6,4.6,96,0.41,RA,FEW,0.52,WeatherDisplay:10.37,2013-03-18 11:48:00,
2013-03-18 05:53:00,44.2,43.4,29.71,SSE,157,5.8,5.8,97,0.49,RA,FEW,0.64,WeatherDisplay:10.37,2013-03-18 11:53:00,
2013-03-18 05:58:00,44.4,43.6,29.70,ESE,111,3.5,3.5,97,0.53,RA,FEW,0.70,WeatherDisplay:10.37,2013-03-18 11:58:00,
2013-03-18 06:03:00,44.6,43.8,29.71,SSE,153,8.1,8.1,97,0.53,RA,FEW,0.72,WeatherDisplay:10.37,2013-03-18 12:03:00,
2013-03-18 06:08:00,44.9,44.1,29.70,ESE,123,2.3,2.3,97,0.52,RA,FEW,0.72,WeatherDisplay:10.37,2013-03-18 12:08:00,
2013-03-18 06:13:00,45.1,44.3,29.70,SE,141,3.5,3.5,97,0.52,OVC,FEW,0.72,WeatherDisplay:10.37,2013-03-18 12:13:00,
2013-03-18 06:18:00,45.3,44.5,29.70,SE,144,1.1,0.0,97,0.52,OVC,FEW,0.72,WeatherDisplay:10.37,2013-03-18 12:18:00,
2013-03-18 06:23:00,45.5,44.7,29.71,West,279,0.0,0.0,97,0.54,RA,FEW,0.74,WeatherDisplay:10.37,2013-03-18 12:23:00,
2013-03-18 06:28:00,45.7,44.9,29.74,SW,235,5.8,5.8,97,0.47,RA,FEW,0.77,WeatherDisplay:10.37,2013-03-18 12:28:00,
2013-03-18 06:33:00,45.8,45.0,29.73,WNW,301,3.5,3.5,97,0.41,RA,FEW,0.81,WeatherDisplay:10.37,2013-03-18 12:33:00,
2013-03-18 06:38:00,46.0,45.2,29.74,WNW,301,2.3,2.3,97,0.36,RA,FEW,0.82,WeatherDisplay:10.37,2013-03-18 12:38:00,
2013-03-18 06:43:00,46.0,45.2,29.74,WNW,301,1.1,1.1,97,0.37,RA,FEW,0.84,WeatherDisplay:10.37,2013-03-18 12:43:00,
2013-03-18 06:48:00,46.1,45.3,29.73,NW,323,2.3,2.3,97,0.32,RA,FEW,0.84,WeatherDisplay:10.37,2013-03-18 12:48:00,
2013-03-18 06:53:00,46.1,45.3,29.73,SW,222,1.1,0.0,97,0.23,RA,FEW,0.86,WeatherDisplay:10.37,2013-03-18 12:53:00,
2013-03-18 06:58:00,46.1,45.3,29.74,SW,222,2.3,2.3,97,0.17,RA,FEW,0.87,WeatherDisplay:10.37,2013-03-18 12:58:00,
2013-03-18 07:03:00,46.2,45.4,29.73,SW,220,2.3,2.3,97,0.16,RA,FEW,0.88,WeatherDisplay:10.37,2013-03-18 13:03:00,
2013-03-18 07:08:00,46.3,45.5,29.73,SE,138,2.3,2.3,97,0.17,RA,FEW,0.89,WeatherDisplay:10.37,2013-03-18 13:08:00,
2013-03-18 07:13:00,46.4,45.6,29.74,SE,138,0.0,0.0,97,0.19,RA,FEW,0.91,WeatherDisplay:10.37,2013-03-18 13:13:00,
2013-03-18 07:18:00,46.5,45.7,29.74,SE,138,0.0,0.0,97,0.20,RA,FEW,0.92,WeatherDisplay:10.37,2013-03-18 13:18:00,
2013-03-18 07:23:00,46.5,45.7,29.74,SE,138,0.0,0.0,97,0.18,RA,FEW,0.93,WeatherDisplay:10.37,2013-03-18 13:23:00,
2013-03-18 07:28:00,46.7,45.9,29.74,SE,138,0.0,0.0,97,0.18,RA,FEW,0.94,WeatherDisplay:10.37,2013-03-18 13:28:00,
2013-03-18 07:34:00,46.8,46.3,29.74,SE,138,0.0,0.0,98,0.15,RA,FEW,0.96,WeatherDisplay:10.37,2013-03-18 13:34:00,
2013-03-18 07:39:00,46.9,46.4,29.75,SE,138,0.0,0.0,98,0.14,RA,FEW,0.97,WeatherDisplay:10.37,2013-03-18 13:39:00,
2013-03-18 07:44:00,46.9,46.4,29.75,SE,138,0.0,0.0,98,0.16,RA,FEW,1.00,WeatherDisplay:10.37,2013-03-18 13:44:00,
2013-03-18 07:49:00,47.1,46.6,29.74,ENE,57,4.6,4.6,98,0.19,RA,FEW,1.03,WeatherDisplay:10.37,2013-03-18 13:49:00,
2013-03-18 07:54:00,47.2,46.7,29.74,NE,43,0.0,0.0,98,0.22,RA,FEW,1.08,WeatherDisplay:10.37,2013-03-18 13:54:00,
2013-03-18 07:59:00,47.3,46.8,29.74,NE,43,2.3,2.3,98,0.21,RA,FEW,1.08,WeatherDisplay:10.37,2013-03-18 13:59:00,
2013-03-18 08:04:00,47.5,47.0,29.74,North,360,1.1,1.1,98,0.20,BKN,FEW,1.08,WeatherDisplay:10.37,2013-03-18 14:04:00,
2013-03-18 08:09:00,47.6,47.1,29.74,North,360,1.1,1.1,98,0.18,BKN,FEW,1.08,WeatherDisplay:10.37,2013-03-18 14:09:00,
2013-03-18 08:14:00,47.6,47.1,29.76,North,360,1.1,1.1,98,0.17,BKN,FEW,1.08,WeatherDisplay:10.37,2013-03-18 14:14:00,
2013-03-18 08:19:00,47.8,47.3,29.76,North,5,2.3,2.3,98,0.16,BKN,FEW,1.08,WeatherDisplay:10.37,2013-03-18 14:19:00,
2013-03-18 08:24:00,47.8,47.3,29.77,North,5,0.0,0.0,98,0.15,OVC,FEW,1.08,WeatherDisplay:10.37,2013-03-18 14:24:00,
2013-03-18 08:29:00,47.9,47.4,29.77,North,5,0.0,0.0,98,0.14,OVC,FEW,1.08,WeatherDisplay:10.37,2013-03-18 14:29:00,
2013-03-18 08:34:00,48.0,47.5,29.77,North,5,0.0,0.0,98,0.12,OVC,FEW,1.08,WeatherDisplay:10.37,2013-03-18 14:34:00,
2013-03-18 08:39:00,48.1,47.6,29.76,North,5,2.3,2.3,98,0.11,BKN,FEW,1.08,WeatherDisplay:10.37,2013-03-18 14:39:00,
2013-03-18 08:44:00,48.2,47.7,29.77,North,5,0.0,0.0,98,0.08,BKN,FEW,1.08,WeatherDisplay:10.37,2013-03-18 14:44:00,
2013-03-18 08:49:00,48.6,48.1,29.76,WNW,296,0.0,0.0,98,0.05,BKN,FEW,1.08,WeatherDisplay:10.37,2013-03-18 14:49:00,
2013-03-18 08:54:00,49.0,48.5,29.76,SW,222,1.1,0.0,98,0.00,BKN,FEW,1.08,WeatherDisplay:10.37,2013-03-18 14:54:00,
2013-03-18 08:59:00,49.3,48.8,29.76,SW,222,0.0,0.0,98,0.00,BKN,FEW,1.08,WeatherDisplay:10.37,2013-03-18 14:59:00,
2013-03-18 09:04:00,49.9,49.4,29.76,North,5,1.1,1.1,98,0.00,OVC,FEW,1.08,WeatherDisplay:10.37,2013-03-18 15:04:00,
2013-03-18 09:09:00,50.4,49.9,29.77,WNW,282,4.6,4.6,98,0.00,OVC,FEW,1.08,WeatherDisplay:10.37,2013-03-18 15:09:00,
2013-03-18 09:14:00,50.8,50.3,29.77,WNW,300,3.5,3.5,98,0.00,OVC,FEW,1.08,WeatherDisplay:10.37,2013-03-18 15:14:00,
2013-03-18 09:19:00,51.3,50.8,29.78,WNW,288,2.3,2.3,98,0.00,OVC,FEW,1.08,WeatherDisplay:10.37,2013-03-18 15:19:00,
2013-03-18 09:24:00,51.9,51.4,29.78,WNW,296,5.8,5.8,98,0.00,OVC,FEW,1.08,WeatherDisplay:10.37,2013-03-18 15:24:00,
2013-03-18 09:29:00,52.2,51.7,29.77,WSW,247,9.2,9.2,98,0.00,OVC,FEW,1.08,WeatherDisplay:10.37,2013-03-18 15:29:00,
2013-03-18 09:34:00,52.1,51.6,29.76,WSW,249,8.1,8.1,98,0.00,OVC,FEW,1.08,WeatherDisplay:10.37,2013-03-18 15:34:00,
2013-03-18 09:39:00,51.9,51.4,29.77,West,259,8.1,8.1,98,0.00,OVC,FEW,1.08,WeatherDisplay:10.37,2013-03-18 15:39:00,
2013-03-18 09:44:00,51.8,51.3,29.77,WNW,292,8.1,8.1,98,0.00,OVC,FEW,1.08,WeatherDisplay:10.37,2013-03-18 15:44:00,
2013-03-18 09:49:00,51.7,51.2,29.77,WNW,303,8.1,8.1,98,0.00,OVC,FEW,1.08,WeatherDisplay:10.37,2013-03-18 15:49:00,
2013-03-18 09:54:00,51.8,51.3,29.78,WSW,248,9.2,9.2,98,0.00,OVC,FEW,1.08,WeatherDisplay:10.37,2013-03-18 15:54:00,
2013-03-18 09:59:00,51.8,51.3,29.78,NW,307,8.1,8.1,98,0.00,OVC,FEW,1.08,WeatherDisplay:10.37,2013-03-18 15:59:00,
2013-03-18 10:04:00,51.4,50.3,29.78,WNW,285,8.1,8.1,96,0.00,OVC,FEW,1.08,WeatherDisplay:10.37,2013-03-18 16:04:00,
2013-03-18 10:09:00,51.2,49.8,29.77,WNW,286,8.1,8.1,95,0.00,OVC,FEW,1.08,WeatherDisplay:10.37,2013-03-18 16:09:00,
2013-03-18 10:14:00,51.4,50.3,29.76,SW,233,4.6,4.6,96,0.00,OVC,FEW,1.08,WeatherDisplay:10.37,2013-03-18 16:14:00,
2013-03-18 10:19:00,52.0,51.2,29.77,West,277,3.5,3.5,97,0.00,OVC,FEW,1.08,WeatherDisplay:10.37,2013-03-18 16:19:00,
2013-03-18 10:24:00,52.8,52.0,29.77,NW,311,4.6,4.6,97,0.00,OVC,FEW,1.08,WeatherDisplay:10.37,2013-03-18 16:24:00,
2013-03-18 10:29:00,53.4,52.3,29.78,West,259,6.9,6.9,96,0.00,OVC,FEW,1.08,WeatherDisplay:10.37,2013-03-18 16:29:00,
2013-03-18 10:34:00,53.3,51.3,29.79,West,267,9.2,9.2,93,0.00,OVC,FEW,1.08,WeatherDisplay:10.37,2013-03-18 16:34:00,
2013-03-18 10:39:00,53.0,50.4,29.79,WNW,295,11.5,11.5,91,0.00,OVC,FEW,1.08,WeatherDisplay:10.37,2013-03-18 16:39:00,
2013-03-18 10:44:00,52.8,50.5,29.79,South,187,8.1,8.1,92,0.00,OVC,FEW,1.08,WeatherDisplay:10.37,2013-03-18 16:44:00,
2013-03-18 10:49:00,52.7,50.4,29.79,WNW,292,4.6,4.6,92,0.00,OVC,FEW,1.08,WeatherDisplay:10.37,2013-03-18 16:49:00,
2013-03-18 10:54:00,52.9,50.9,29.78,WNW,292,4.6,4.6,93,0.00,OVC,FEW,1.08,WeatherDisplay:10.37,2013-03-18 16:54:00,
2013-03-18 10:59:00,53.0,50.7,29.79,WSW,251,5.8,5.8,92,0.00,OVC,FEW,1.08,WeatherDisplay:10.37,2013-03-18 16:59:00,
2013-03-18 11:04:00,53.1,50.5,29.78,WNW,284,6.9,6.9,91,0.00,OVC,FEW,1.08,WeatherDisplay:10.37,2013-03-18 17:04:00,
2013-03-18 11:09:00,53.5,51.2,29.78,WNW,300,8.1,8.1,92,0.00,OVC,FEW,1.08,WeatherDisplay:10.37,2013-03-18 17:09:00,
2013-03-18 11:14:00,53.4,50.5,29.78,NW,306,6.9,6.9,90,0.00,OVC,FEW,1.08,WeatherDisplay:10.37,2013-03-18 17:14:00,
2013-03-18 11:19:00,53.6,51.3,29.78,WNW,286,2.1,2.1,92,0.00,OVC,FEW,1.08,WeatherDisplay:10.37,2013-03-18 17:19:00,
2013-03-18 11:24:00,54.0,51.1,29.79,SW,221,5.8,5.8,90,0.00,OVC,FEW,1.08,WeatherDisplay:10.37,2013-03-18 17:24:00,
2013-03-18 11:29:00,54.5,51.3,29.79,NW,306,6.9,6.9,89,0.00,OVC,FEW,1.08,WeatherDisplay:10.37,2013-03-18 17:29:00,
2013-03-18 11:34:00,55.0,51.5,29.79,WNW,301,8.1,8.1,88,0.00,OVC,FEW,1.08,WeatherDisplay:10.37,2013-03-18 17:34:00,
2013-03-18 11:39:00,55.3,51.5,29.79,WNW,288,6.9,6.9,87,0.00,OVC,FEW,1.08,WeatherDisplay:10.37,2013-03-18 17:39:00,
2013-03-18 11:44:00,55.4,51.6,29.78,WNW,284,8.1,8.1,87,0.00,OVC,FEW,1.08,WeatherDisplay:10.37,2013-03-18 17:44:00,
2013-03-18 11:49:00,55.6,51.8,29.78,West,273,10.4,10.4,87,0.00,OVC,FEW,1.08,WeatherDisplay:10.37,2013-03-18 17:49:00,
2013-03-18 11:54:00,56.3,52.8,29.78,West,278,4.6,4.6,88,0.00,OVC,FEW,1.08,WeatherDisplay:10.37,2013-03-18 17:54:00,
2013-03-18 11:59:00,56.8,52.3,29.78,WNW,298,8.1,8.1,85,0.00,OVC,FEW,1.08,WeatherDisplay:10.37,2013-03-18 17:59:00,
2013-03-18 12:05:00,57.1,52.3,29.78,WSW,251,8.1,8.1,84,0.00,OVC,FEW,1.08,WeatherDisplay:10.37,2013-03-18 18:05:00,
2013-03-18 12:10:00,57.1,51.7,29.77,WSW,254,9.2,9.2,82,0.00,OVC,FEW,1.08,WeatherDisplay:10.37,2013-03-18 18:10:00,
2013-03-18 12:15:00,57.1,51.7,29.77,WNW,290,6.9,6.9,82,0.00,OVC,FEW,1.08,WeatherDisplay:10.37,2013-03-18 18:15:00,
2013-03-18 12:20:00,56.9,51.1,29.77,WNW,298,4.6,4.6,81,0.00,OVC,FEW,1.08,WeatherDisplay:10.37,2013-03-18 18:20:00,
2013-03-18 12:25:00,56.7,50.9,29.77,NNW,344,6.9,6.9,81,0.00,OVC,FEW,1.08,WeatherDisplay:10.37,2013-03-18 18:25:00,
2013-03-18 12:30:00,56.1,50.3,29.78,WNW,282,6.9,6.9,81,0.00,OVC,FEW,1.08,WeatherDisplay:10.37,2013-03-18 18:30:00,
2013-03-18 12:35:00,55.8,50.1,29.77,WNW,289,3.5,3.5,81,0.00,OVC,FEW,1.08,WeatherDisplay:10.37,2013-03-18 18:35:00,
2013-03-18 12:40:00,55.9,50.5,29.77,SW,229,6.9,6.9,82,0.00,OVC,FEW,1.08,WeatherDisplay:10.37,2013-03-18 18:40:00,
2013-03-18 12:45:00,55.8,50.4,29.77,NW,304,6.9,6.9,82,0.00,OVC,FEW,1.08,WeatherDisplay:10.37,2013-03-18 18:45:00,
2013-03-18 12:50:00,55.6,50.2,29.77,WNW,294,4.6,4.6,82,0.00,OVC,FEW,1.08,WeatherDisplay:10.37,2013-03-18 18:50:00,
2013-03-18 12:55:00,55.7,50.3,29.77,NW,315,4.6,4.6,82,0.00,OVC,FEW,1.08,WeatherDisplay:10.37,2013-03-18 18:55:00,
2013-03-18 13:00:00,55.7,50.0,29.76,West,281,3.5,3.5,81,0.00,OVC,FEW,1.08,WeatherDisplay:10.37,2013-03-18 19:00:00,
2013-03-18 13:05:00,55.7,49.3,29.76,SW,234,9.2,9.2,79,0.00,OVC,FEW,1.08,WeatherDisplay:10.37,2013-03-18 19:05:00,
2013-03-18 13:10:00,55.7,49.3,29.77,WSW,248,8.1,8.1,79,0.00,OVC,FEW,1.08,WeatherDisplay:10.37,2013-03-18 19:10:00,
2013-03-18 13:15:00,55.7,50.0,29.77,SW,225,5.8,5.8,81,0.00,OVC,FEW,1.08,WeatherDisplay:10.37,2013-03-18 19:15:00,
2013-03-18 13:20:00,55.5,49.1,29.75,SW,232,6.9,6.9,79,0.00,OVC,FEW,1.08,WeatherDisplay:10.37,2013-03-18 19:20:00,
2013-03-18 13:25:00,55.5,49.8,29.75,WSW,244,3.5,3.5,81,0.00,OVC,FEW,1.08,WeatherDisplay:10.37,2013-03-18 19:25:00,
2013-03-18 13:30:00,55.5,49.4,29.74,NW,304,6.9,6.9,80,0.00,OVC,FEW,1.08,WeatherDisplay:10.37,2013-03-18 19:30:00,
2013-03-18 13:35:00,55.5,49.4,29.74,NW,325,4.6,4.6,80,0.00,OVC,FEW,1.08,WeatherDisplay:10.37,2013-03-18 19:35:00,
2013-03-18 13:40:00,55.4,49.3,29.74,WNW,301,6.9,6.9,80,0.00,OVC,FEW,1.08,WeatherDisplay:10.37,2013-03-18 19:40:00,
2013-03-18 13:45:00,55.4,49.3,29.74,WSW,249,4.6,4.6,80,0.00,OVC,FEW,1.08,WeatherDisplay:10.37,2013-03-18 19:45:00,
2013-03-18 13:50:00,55.5,49.8,29.74,WSW,244,4.6,4.6,81,0.00,OVC,FEW,1.08,WeatherDisplay:10.37,2013-03-18 19:50:00,
2013-03-18 13:55:00,55.4,49.3,29.75,WSW,244,5.8,5.8,80,0.00,OVC,FEW,1.08,WeatherDisplay:10.37,2013-03-18 19:55:00,
2013-03-18 14:00:00,55.4,49.7,29.76,WSW,256,3.5,3.5,81,0.00,OVC,FEW,1.08,WeatherDisplay:10.37,2013-03-18 20:00:00,
2013-03-18 14:05:00,55.4,50.0,29.76,WNW,289,4.6,4.6,82,0.00,OVC,FEW,1.08,WeatherDisplay:10.37,2013-03-18 20:05:00,
2013-03-18 14:10:00,55.3,49.6,29.76,WNW,288,4.6,4.6,81,0.00,OVC,FEW,1.08,WeatherDisplay:10.37,2013-03-18 20:10:00,
2013-03-18 14:15:00,55.1,49.4,29.76,West,267,8.1,8.1,81,0.00,OVC,FEW,1.08,WeatherDisplay:10.37,2013-03-18 20:15:00,
2013-03-18 14:20:00,54.9,49.5,29.77,NW,319,5.8,5.8,82,0.00,OVC,FEW,1.08,WeatherDisplay:10.37,2013-03-18 20:20:00,
2013-03-18 14:25:00,54.9,49.8,29.77,WNW,291,5.8,5.8,83,0.00,OVC,FEW,1.08,WeatherDisplay:10.37,2013-03-18 20:25:00,
2013-03-18 14:30:00,55.1,50.4,29.76,NW,325,2.3,2.3,84,0.00,OVC,FEW,1.08,WeatherDisplay:10.37,2013-03-18 20:30:00,
2013-03-18 14:35:00,55.3,49.9,29.76,WNW,292,6.9,6.9,82,0.00,OVC,FEW,1.08,WeatherDisplay:10.37,2013-03-18 20:35:00,
2013-03-18 14:40:00,55.3,50.2,29.76,WNW,288,8.1,8.1,83,0.00,OVC,FEW,1.08,WeatherDisplay:10.37,2013-03-18 20:40:00,
2013-03-18 14:45:00,55.3,49.9,29.77,WNW,298,4.6,4.6,82,0.00,OVC,FEW,1.08,WeatherDisplay:10.37,2013-03-18 20:45:00,
2013-03-18 14:50:00,55.2,49.5,29.78,NW,315,8.1,8.1,81,0.00,OVC,FEW,1.08,WeatherDisplay:10.37,2013-03-18 20:50:00,
2013-03-18 14:55:00,55.1,49.4,29.78,WNW,302,6.9,6.9,81,0.00,OVC,FEW,1.08,WeatherDisplay:10.37,2013-03-18 20:55:00,
2013-03-18 15:00:00,54.8,49.1,29.78,NW,309,6.9,6.9,81,0.00,OVC,FEW,1.08,WeatherDisplay:10.37,2013-03-18 21:00:00,
2013-03-18 15:05:00,54.5,49.1,29.78,WNW,298,12.7,12.7,82,0.00,OVC,FEW,1.08,WeatherDisplay:10.37,2013-03-18 21:05:00,
2013-03-18 15:10:00,54.1,48.4,29.79,WNW,292,5.8,5.8,81,0.00,OVC,FEW,1.08,WeatherDisplay:10.37,2013-03-18 21:10:00,
2013-03-18 15:15:00,53.8,48.1,29.80,WSW,246,6.9,6.9,81,0.00,OVC,FEW,1.08,WeatherDisplay:10.37,2013-03-18 21:15:00,
2013-03-18 15:20:00,53.4,48.0,29.80,WNW,288,9.2,9.2,82,0.00,OVC,FEW,1.08,WeatherDisplay:10.37,2013-03-18 21:20:00,
2013-03-18 15:25:00,53.3,47.9,29.81,WSW,254,5.8,5.8,82,0.00,OVC,FEW,1.08,WeatherDisplay:10.37,2013-03-18 21:25:00,
2013-03-18 15:30:00,53.0,47.7,29.81,West,274,9.2,9.2,82,0.00,OVC,FEW,1.08,WeatherDisplay:10.37,2013-03-18 21:30:00,
2013-03-18 15:35:00,52.4,47.1,29.82,WNW,294,8.1,8.1,82,0.00,OVC,FEW,1.08,WeatherDisplay:10.37,2013-03-18 21:35:00,
2013-03-18 15:40:00,52.0,47.0,29.82,WNW,302,11.5,11.5,83,0.00,OVC,FEW,1.08,WeatherDisplay:10.37,2013-03-18 21:40:00,
2013-03-18 15:45:00,51.8,46.8,29.82,WNW,299,12.7,12.7,83,0.00,OVC,FEW,1.08,WeatherDisplay:10.37,2013-03-18 21:45:00,
2013-03-18 15:50:00,51.7,47.0,29.82,WNW,282,8.1,8.1,84,0.00,OVC,FEW,1.08,WeatherDisplay:10.37,2013-03-18 21:50:00,
2013-03-18 15:55:00,51.7,47.0,29.82,WSW,254,8.1,8.1,84,0.00,OVC,FEW,1.08,WeatherDisplay:10.37,2013-03-18 21:55:00,
2013-03-18 16:01:00,51.7,47.0,29.82,WNW,288,3.5,3.5,84,0.00,OVC,FEW,1.08,WeatherDisplay:10.37,2013-03-18 22:01:00,
2013-03-18 16:06:00,51.6,46.9,29.83,WNW,298,5.8,5.8,84,0.00,OVC,FEW,1.08,WeatherDisplay:10.37,2013-03-18 22:06:00,
2013-03-18 16:11:00,51.5,46.5,29.83,WNW,299,11.5,11.5,83,0.00,OVC,FEW,1.08,WeatherDisplay:10.37,2013-03-18 22:11:00,
2013-03-18 16:16:00,51.5,46.5,29.83,NNW,339,6.9,6.9,83,0.00,OVC,FEW,1.08,WeatherDisplay:10.37,2013-03-18 22:16:00,
2013-03-18 16:21:00,51.5,46.8,29.84,WNW,284,8.1,8.1,84,0.00,OVC,FEW,1.08,WeatherDisplay:10.37,2013-03-18 22:21:00,
2013-03-18 16:26:00,51.5,46.5,29.84,NW,326,5.8,5.8,83,0.00,OVC,FEW,1.08,WeatherDisplay:10.37,2013-03-18 22:26:00,
2013-03-18 16:31:00,51.5,46.5,29.84,West,270,5.8,5.8,83,0.00,OVC,FEW,1.08,WeatherDisplay:10.37,2013-03-18 22:31:00,
2013-03-18 16:36:00,51.4,46.4,29.84,WNW,290,8.6,8.6,83,0.00,OVC,FEW,1.08,WeatherDisplay:10.37,2013-03-18 22:36:00,
2013-03-18 16:41:00,51.1,46.1,29.85,WNW,294,8.1,8.1,83,0.00,OVC,FEW,1.08,WeatherDisplay:10.37,2013-03-18 22:41:00,
2013-03-18 16:46:00,51.0,46.0,29.85,WNW,288,6.9,6.9,83,0.00,OVC,FEW,1.08,WeatherDisplay:10.37,2013-03-18 22:46:00,
2013-03-18 16:51:00,51.0,46.3,29.85,NNW,345,5.8,5.8,84,0.00,OVC,FEW,1.08,WeatherDisplay:10.37,2013-03-18 22:51:00,
2013-03-18 16:56:00,51.0,46.0,29.85,WNW,296,9.2,9.2,83,0.00,OVC,FEW,1.08,WeatherDisplay:10.37,2013-03-18 22:56:00,
2013-03-18 17:01:00,50.9,45.9,29.86,WNW,286,8.1,8.1,83,0.00,OVC,FEW,1.08,WeatherDisplay:10.37,2013-03-18 23:01:00,
2013-03-18 17:06:00,50.9,45.6,29.86,WNW,296,9.2,9.2,82,0.00,OVC,FEW,1.08,WeatherDisplay:10.37,2013-03-18 23:06:00,
2013-03-18 17:11:00,50.8,45.8,29.86,WNW,300,5.8,5.8,83,0.00,OVC,FEW,1.08,WeatherDisplay:10.37,2013-03-18 23:11:00,
2013-03-18 17:16:00,50.7,46.0,29.87,WSW,258,8.1,8.1,84,0.00,OVC,FEW,1.08,WeatherDisplay:10.37,2013-03-18 23:16:00,
2013-03-18 17:22:00,50.6,45.9,29.87,WNW,300,6.4,6.4,84,0.00,OVC,FEW,1.08,WeatherDisplay:10.37,2013-03-18 23:22:00,
2013-03-18 17:27:00,50.5,45.8,29.87,NW,305,5.8,5.8,84,0.00,OVC,FEW,1.08,WeatherDisplay:10.37,2013-03-18 23:27:00,
2013-03-18 17:32:00,50.5,45.8,29.88,WNW,294,6.9,6.9,84,0.00,OVC,FEW,1.08,WeatherDisplay:10.37,2013-03-18 23:32:00,
2013-03-18 17:37:00,50.4,45.4,29.88,WNW,302,5.8,5.8,83,0.00,OVC,FEW,1.08,WeatherDisplay:10.37,2013-03-18 23:37:00,
2013-03-18 17:42:00,50.4,45.7,29.88,WNW,282,5.8,5.8,84,0.00,OVC,FEW,1.08,WeatherDisplay:10.37,2013-03-18 23:42:00,
2013-03-18 17:47:00,50.3,45.3,29.88,WNW,296,5.8,5.8,83,0.00,OVC,FEW,1.08,WeatherDisplay:10.37,2013-03-18 23:47:00,
2013-03-18 17:52:00,50.2,44.9,29.88,NW,308,6.9,6.9,82,0.00,OVC,FEW,1.08,WeatherDisplay:10.37,2013-03-18 23:52:00,
2013-03-18 17:57:00,49.9,44.9,29.89,WNW,294,3.5,3.5,83,0.00,OVC,FEW,1.08,WeatherDisplay:10.37,2013-03-18 23:57:00,
2013-03-18 18:02:00,49.8,44.8,29.89,NW,306,1.1,1.2,83,0.00,OVC,FEW,1.08,WeatherDisplay:10.37,2013-03-19 00:02:00,
2013-03-18 18:07:00,49.6,44.6,29.90,WNW,291,8.1,8.1,83,0.00,OVC,FEW,1.08,WeatherDisplay:10.37,2013-03-19 00:07:00,
2013-03-18 18:12:00,49.5,44.6,29.90,West,276,6.9,6.9,83,0.00,OVC,FEW,1.08,WeatherDisplay:10.37,2013-03-19 00:12:00,
2013-03-18 18:17:00,49.4,44.5,29.90,WNW,302,4.6,4.6,83,0.00,OVC,FEW,1.08,WeatherDisplay:10.37,2013-03-19 00:17:00,
2013-03-18 18:22:00,49.4,44.8,29.90,WNW,293,4.6,4.6,84,0.00,OVC,FEW,1.08,WeatherDisplay:10.37,2013-03-19 00:22:00,
2013-03-18 18:27:00,49.2,44.3,29.90,NNW,336,3.5,3.5,83,0.00,OVC,FEW,1.08,WeatherDisplay:10.37,2013-03-19 00:27:00,
2013-03-18 18:32:00,48.9,44.3,29.90,WNW,300,3.5,3.5,84,0.00,OVC,FEW,1.08,WeatherDisplay:10.37,2013-03-19 00:32:00,
2013-03-18 18:37:00,48.7,44.1,29.91,NW,305,3.5,3.5,84,0.00,OVC,FEW,1.08,WeatherDisplay:10.37,2013-03-19 00:37:00,
2013-03-18 18:42:00,48.6,44.3,29.91,WNW,300,4.6,4.6,85,0.00,OVC,FEW,1.08,WeatherDisplay:10.37,2013-03-19 00:42:00,
2013-03-18 18:47:00,48.4,44.1,29.91,WNW,302,3.5,3.5,85,0.00,OVC,FEW,1.08,WeatherDisplay:10.37,2013-03-19 00:47:00,
2013-03-18 18:52:00,48.3,44.0,29.92,WNW,289,5.8,5.8,85,0.00,BKN,FEW,1.08,WeatherDisplay:10.37,2013-03-19 00:52:00,
2013-03-18 18:57:00,48.2,43.9,29.92,West,269,2.3,2.3,85,0.00,BKN,FEW,1.08,WeatherDisplay:10.37,2013-03-19 00:57:00,
2013-03-18 19:03:00,48.0,44.0,29.92,WNW,292,4.6,4.6,86,0.00,CLR,FEW,1.08,WeatherDisplay:10.37,2013-03-19 01:03:00,
2013-03-18 19:08:00,47.8,43.8,29.93,WNW,292,4.6,4.6,86,0.00,CLR,FEW,1.08,WeatherDisplay:10.37,2013-03-19 01:08:00,
2013-03-18 19:13:00,47.7,43.7,29.93,WNW,290,3.5,3.5,86,0.00,CLR,FEW,1.08,WeatherDisplay:10.37,2013-03-19 01:13:00,
2013-03-18 19:18:00,47.5,43.5,29.93,WNW,296,3.5,3.5,86,0.00,CLR,FEW,1.08,WeatherDisplay:10.37,2013-03-19 01:18:00,
2013-03-18 19:23:00,47.3,43.3,29.93,WNW,285,3.5,3.5,86,0.00,CLR,FEW,1.08,WeatherDisplay:10.37,2013-03-19 01:23:00,
2013-03-18 19:28:00,47.0,43.3,29.93,NW,307,3.5,3.5,87,0.00,CLR,FEW,1.08,WeatherDisplay:10.37,2013-03-19 01:28:00,
2013-03-18 19:33:00,47.0,43.3,29.93,NW,306,2.3,2.3,87,0.00,CLR,FEW,1.08,WeatherDisplay:10.37,2013-03-19 01:33:00,
2013-03-18 19:38:00,46.9,43.2,29.93,WNW,302,1.1,1.1,87,0.00,CLR,FEW,1.08,WeatherDisplay:10.37,2013-03-19 01:38:00,
2013-03-18 19:43:00,46.7,43.0,29.94,NW,309,5.8,5.8,87,0.00,CLR,FEW,1.08,WeatherDisplay:10.37,2013-03-19 01:43:00,
2013-03-18 19:48:00,46.5,42.8,29.94,NW,308,4.6,4.6,87,0.00,CLR,FEW,1.08,WeatherDisplay:10.37,2013-03-19 01:48:00,
2013-03-18 19:53:00,46.4,42.7,29.94,NW,308,3.5,3.5,87,0.00,CLR,FEW,1.08,WeatherDisplay:10.37,2013-03-19 01:53:00,
2013-03-18 19:58:00,46.3,42.6,29.94,West,281,2.3,2.3,87,0.00,CLR,FEW,1.08,WeatherDisplay:10.37,2013-03-19 01:58:00,
2013-03-18 20:03:00,46.1,42.4,29.94,West,281,0.0,0.0,87,0.00,CLR,FEW,1.08,WeatherDisplay:10.37,2013-03-19 02:03:00,
2013-03-18 20:08:00,45.8,42.2,29.95,West,269,0.0,0.0,87,0.00,CLR,FEW,1.08,WeatherDisplay:10.37,2013-03-19 02:08:00,
2013-03-18 20:13:00,45.4,42.1,29.95,West,269,0.0,0.0,88,0.00,CLR,FEW,1.08,WeatherDisplay:10.37,2013-03-19 02:13:00,
2013-03-18 20:18:00,45.0,42.0,29.96,North,350,0.0,0.0,89,0.00,CLR,FEW,1.08,WeatherDisplay:10.37,2013-03-19 02:18:00,
2013-03-18 20:23:00,44.7,41.9,29.96,SW,229,3.5,3.5,90,0.00,CLR,FEW,1.08,WeatherDisplay:10.37,2013-03-19 02:23:00,
2013-03-18 20:28:00,44.5,41.7,29.96,SW,231,0.0,0.0,90,0.00,CLR,FEW,1.08,WeatherDisplay:10.37,2013-03-19 02:28:00,
2013-03-18 20:33:00,44.3,41.6,29.97,WSW,257,1.1,1.1,90,0.00,CLR,FEW,1.08,WeatherDisplay:10.37,2013-03-19 02:33:00,
2013-03-18 20:38:00,44.1,41.6,29.97,West,262,0.0,0.0,91,0.00,CLR,FEW,1.08,WeatherDisplay:10.37,2013-03-19 02:38:00,
2013-03-18 20:43:00,43.9,41.4,29.97,West,262,1.1,1.1,91,0.00,CLR,FEW,1.08,WeatherDisplay:10.37,2013-03-19 02:43:00,
2013-03-18 20:48:00,43.6,41.1,29.97,West,262,1.1,0.0,91,0.00,CLR,FEW,1.08,WeatherDisplay:10.37,2013-03-19 02:48:00,
2013-03-18 20:53:00,43.5,41.3,29.98,West,262,0.0,0.0,92,0.00,CLR,FEW,1.08,WeatherDisplay:10.37,2013-03-19 02:53:00,
2013-03-18 20:58:00,43.3,41.1,29.98,West,262,0.0,0.0,92,0.00,CLR,FEW,1.08,WeatherDisplay:10.37,2013-03-19 02:58:00,
2013-03-18 21:03:00,43.2,41.0,29.98,West,268,0.0,0.0,92,0.00,CLR,FEW,1.08,WeatherDisplay:10.37,2013-03-19 03:03:00,
2013-03-18 21:08:00,43.1,40.9,29.98,West,268,0.0,0.0,92,0.00,CLR,FEW,1.08,WeatherDisplay:10.37,2013-03-19 03:08:00,
2013-03-18 21:13:00,42.9,40.7,29.98,West,268,0.0,0.0,92,0.00,CLR,FEW,1.08,WeatherDisplay:10.37,2013-03-19 03:13:00,
2013-03-18 21:18:00,42.7,40.5,29.98,West,268,0.0,0.0,92,0.00,CLR,FEW,1.08,WeatherDisplay:10.37,2013-03-19 03:18:00,
2013-03-18 21:23:00,42.5,40.3,29.99,West,268,0.0,0.0,92,0.00,CLR,FEW,1.08,WeatherDisplay:10.37,2013-03-19 03:23:00,
2013-03-18 21:28:00,42.3,40.4,29.98,West,268,0.0,0.0,93,0.00,CLR,FEW,1.08,WeatherDisplay:10.37,2013-03-19 03:28:00,
2013-03-18 21:33:00,42.1,40.2,29.99,West,268,0.0,0.0,93,0.00,CLR,FEW,1.08,WeatherDisplay:10.37,2013-03-19 03:33:00,
2013-03-18 21:38:00,41.8,39.9,29.99,West,268,0.0,0.0,93,0.00,CLR,FEW,1.08,WeatherDisplay:10.37,2013-03-19 03:38:00,
2013-03-18 21:43:00,41.6,39.7,29.99,West,268,0.0,0.0,93,0.00,CLR,FEW,1.08,WeatherDisplay:10.37,2013-03-19 03:43:00,
2013-03-18 21:48:00,41.4,39.5,30.00,West,268,0.0,0.0,93,0.00,CLR,FEW,1.08,WeatherDisplay:10.37,2013-03-19 03:48:00,
2013-03-18 21:53:00,41.2,39.3,30.00,West,268,0.0,0.0,93,0.00,CLR,FEW,1.08,WeatherDisplay:10.37,2013-03-19 03:53:00,
2013-03-18 21:58:00,41.0,39.4,29.99,West,268,0.0,0.0,94,0.00,CLR,FEW,1.08,WeatherDisplay:10.37,2013-03-19 03:58:00,
2013-03-18 22:00:00,41.0,39.4,30.00,West,268,0.0,0.0,94,0.00,CLR,FEW,1.08,WeatherDisplay:10.37,2013-03-19 04:00:00,
2013-03-18 22:01:00,41.0,39.4,30.00,West,268,0.0,0.0,94,0.00,CLR,FEW,1.08,WeatherDisplay:10.37,2013-03-19 04:01:00,
2013-03-18 22:06:00,40.6,39.0,30.00,West,268,0.0,0.0,94,0.00,CLR,FEW,1.08,WeatherDisplay:10.37,2013-03-19 04:06:00,
2013-03-18 22:11:00,40.4,38.8,30.00,West,268,0.0,0.0,94,0.00,CLR,FEW,1.08,WeatherDisplay:10.37,2013-03-19 04:11:00,
2013-03-18 22:16:00,40.1,38.5,30.00,West,268,0.0,0.0,94,0.00,CLR,FEW,1.08,WeatherDisplay:10.37,2013-03-19 04:16:00,
2013-03-18 22:21:00,39.8,38.2,30.01,West,268,0.0,0.0,94,0.00,CLR,FEW,1.08,WeatherDisplay:10.37,2013-03-19 04:21:00,
2013-03-18 22:26:00,39.7,38.1,30.00,West,268,1.1,0.0,94,0.00,CLR,FEW,1.08,WeatherDisplay:10.37,2013-03-19 04:26:00,
2013-03-18 22:31:00,39.6,38.3,30.00,West,268,0.0,0.0,95,0.00,CLR,FEW,1.08,WeatherDisplay:10.37,2013-03-19 04:31:00,
2013-03-18 22:37:00,39.5,38.2,30.01,West,268,0.0,0.0,95,0.00,CLR,FEW,1.08,WeatherDisplay:10.37,2013-03-19 04:37:00,
2013-03-18 22:42:00,39.4,38.1,30.01,West,268,0.0,0.0,95,0.00,CLR,FEW,1.08,WeatherDisplay:10.37,2013-03-19 04:42:00,
2013-03-18 22:47:00,39.2,37.9,30.01,West,268,0.0,0.0,95,0.00,CLR,FEW,1.08,WeatherDisplay:10.37,2013-03-19 04:47:00,
2013-03-18 22:52:00,39.0,37.7,30.02,West,268,0.0,0.0,95,0.00,CLR,FEW,1.08,WeatherDisplay:10.37,2013-03-19 04:52:00,
2013-03-18 22:57:00,38.8,37.2,30.02,West,268,0.0,0.0,94,0.00,CLR,FEW,1.08,WeatherDisplay:10.37,2013-03-19 04:57:00,
2013-03-18 23:02:00,38.5,36.9,30.02,West,268,0.0,0.0,94,0.00,RA,FEW,0.00,WeatherDisplay:10.37,2013-03-19 05:02:00,
2013-03-18 23:07:00,38.3,37.0,30.03,West,268,0.0,0.0,95,0.00,RA,FEW,0.00,WeatherDisplay:10.37,2013-03-19 05:07:00,
2013-03-18 23:12:00,38.0,36.4,30.03,West,268,0.0,0.0,94,0.00,CLR,FEW,0.00,WeatherDisplay:10.37,2013-03-19 05:12:00,
2013-03-18 23:17:00,37.9,36.6,30.03,West,268,0.0,0.0,95,0.00,CLR,FEW,0.00,WeatherDisplay:10.37,2013-03-19 05:17:00,
2013-03-18 23:22:00,37.8,36.5,30.04,West,268,0.0,0.0,95,0.00,CLR,FEW,0.00,WeatherDisplay:10.37,2013-03-19 05:22:00,
2013-03-18 23:27:00,37.7,36.4,30.04,West,268,0.0,0.0,95,0.00,CLR,FEW,0.00,WeatherDisplay:10.37,2013-03-19 05:27:00,
2013-03-18 23:32:00,37.5,36.2,30.04,West,268,0.0,0.0,95,0.00,CLR,FEW,0.00,WeatherDisplay:10.37,2013-03-19 05:32:00,
2013-03-18 23:37:00,37.3,36.0,30.04,West,268,0.0,0.0,95,0.00,CLR,FEW,0.00,WeatherDisplay:10.37,2013-03-19 05:37:00,
2013-03-18 23:42:00,37.1,35.8,30.04,West,268,0.0,0.0,95,0.00,CLR,FEW,0.00,WeatherDisplay:10.37,2013-03-19 05:42:00,
2013-03-18 23:47:00,37.0,35.7,30.05,West,268,0.0,0.0,95,0.00,CLR,FEW,0.00,WeatherDisplay:10.37,2013-03-19 05:47:00,
2013-03-18 23:52:00,36.8,35.5,30.05,West,268,0.0,0.0,95,0.00,CLR,FEW,0.00,WeatherDisplay:10.37,2013-03-19 05:52:00,
2013-03-18 23:57:00,36.5,35.2,30.04,SSW,192,2.3,2.3,95,0.00,CLR,FEW,0.00,WeatherDisplay:10.37,2013-03-19 05:57:00,